User: anonymous   Login
Location: Unspecified
(0.0000°N, 0.0000°E)
Time: 09:01:38
(UTC+00:00)
Language:

CHINASAT 9B - Orbit

View from above orbital plane
View from above orbital plane
View from above satellite
View from above satellite

Ground track
Ground track

The orbit is defined by the following mean orbital elements,

1 49125U          26145.46124022 +.00000000 +00000-0 +00000-0 0 00003
2 49125   0.0143 277.6983 0001743 158.5532  74.2468  1.00273060    07
Epoch (UTC): 25 May 2026 11:04:11
Eccentricity: 0.0001743
inclination: 0.0143°
perigee height: 35779 km
apogee height: 35794 km
right ascension of ascending node: 277.6983°
argument of perigee: 158.5532°
revolutions per day: 1.00273060
mean anomaly at epoch: 74.2468°

The dashed part of the orbit path shows where the satellite is in the earth's shadow,  

DLR